Glendale Luke AFB, AZ

10:17 PM MST on March 26, 2017 (GMT -0700)
Luke Air Force Base

Weather History for KLUF - February, 2013

Change the Weather History Date:

Monday, February 25, 2013

  Actual Average Record
Temperature  
Mean Temperature 50 °F -  
Max Temperature 63 °F 76 °F 92 °F (1921)
Min Temperature 37 °F 41 °F 23 °F (1960)
Degree Days  
Heating Degree Days 15    
Moisture  
Dew Point 18 °F    
Average Humidity 30    
Maximum Humidity 51    
Minimum Humidity 15    
Precipitation  
Precipitation 0.00 in - - ()
Sea Level Pressure  
Sea Level Pressure 30.12 in    
Wind  
Wind Speed 7 mph (NW)    
Max Wind Speed 13 mph    
Max Gust Speed -    
Visibility 10 miles    
Events      
Averages and records for this station are not official NWS values.
T = Trace of Precipitation, MM = Missing Value Source: NWS Daily Summary

Daily Weather History Graph

Daily Weather History Graph

Search for Another Location

Airport or City:

Trip Planner

Search our weather history database for the weather conditions in past years. The results will help you decide how hot, cold, wet, or windy it might be!

Date:

Astronomy

Feb. 25, 2013 Rise Set
Actual Time 7:02 AM MST 6:23 PM MST
Civil Twilight 6:37 AM MST 6:48 PM MST
Nautical Twilight 6:08 AM MST 7:17 PM MST
Astronomical Twilight 5:39 AM MST 7:45 PM MST
Moon 6:36 PM MST (2/25) 6:36 AM MST (2/25)
Length of Visible Light 12h 11m
Length of Day
11h 20m
Full, 100% of the Moon is Illuminated
Feb 25
Full
Feb 25
Full
Mar 4
Last Quarter
Mar 11
New
Mar 19
First Quarter

Hourly Weather History & Observations

Time (MST) Temp. Windchill Dew Point Humidity Pressure Visibility Wind Dir Wind Speed Gust Speed Precip Events Conditions
12:58 AM 46.8 °F - 14.0 °F 27% 30.12 in 10.0 mi North 12.7 mph - N/A   Clear
1:58 AM 43.7 °F 40.3 °F 15.3 °F 32% 30.14 in 10.0 mi North 5.8 mph - N/A   Clear
2:58 AM 41.4 °F 36.8 °F 16.7 °F 37% 30.14 in 10.0 mi North 6.9 mph - N/A   Clear
3:58 AM 42.1 °F 37.7 °F 16.0 °F 35% 30.14 in 10.0 mi NNW 6.9 mph - N/A   Clear
4:58 AM 39.7 °F 35.6 °F 16.5 °F 39% 30.15 in 10.0 mi WNW 5.8 mph - N/A   Clear
5:58 AM 38.1 °F 33.7 °F 17.2 °F 43% 30.18 in 10.0 mi North 5.8 mph - N/A   Clear
6:58 AM 37.2 °F 32.6 °F 18.9 °F 48% 30.20 in 10.0 mi SW 5.8 mph - N/A   Clear
7:58 AM 40.8 °F 38.8 °F 19.0 °F 42% 30.21 in 10.0 mi NNE 3.5 mph - N/A   Clear
8:58 AM 46.6 °F - 19.2 °F 34% 30.23 in 10.0 mi NW 5.8 mph - N/A   Clear
9:58 AM 51.6 °F - 15.1 °F 23% 30.21 in 10.0 mi NNE 6.9 mph - N/A   Clear
10:58 AM 54.0 °F - 15.6 °F 22% 30.20 in 10.0 mi North 4.6 mph - N/A   Clear
11:58 AM 57.0 °F - 14.9 °F 19% 30.18 in 10.0 mi NNE 4.6 mph - N/A   Clear
12:55 PM 59.0 °F - 14.0 °F 17% 30.14 in 10.0 mi Variable 1.2 mph - N/A   Clear
1:58 PM 61.2 °F - 15.1 °F 17% 30.11 in 10.0 mi South 5.8 mph - N/A   Clear
2:58 PM 62.6 °F - 16.2 °F 17% 30.09 in 10.0 mi SW 6.9 mph - N/A   Clear
3:58 PM 62.4 °F - 14.4 °F 15% 30.08 in 10.0 mi WSW 8.1 mph - N/A   Clear
4:58 PM 63.0 °F - 13.6 °F 15% 30.06 in 10.0 mi SSW 10.4 mph - N/A   Clear
5:58 PM 61.7 °F - 13.8 °F 15% 30.04 in 10.0 mi SSW 9.2 mph - N/A   Clear
6:58 PM 58.6 °F - 16.7 °F 19% 30.04 in 10.0 mi South 5.8 mph - N/A   Clear
7:58 PM 56.1 °F - 17.1 °F 22% 30.04 in 10.0 mi South 3.5 mph - N/A   Clear
8:58 PM 48.9 °F - 25.9 °F 41% 30.02 in 10.0 mi NW 3.5 mph - N/A   Clear
9:58 PM 47.8 °F - 24.6 °F 40% 30.03 in 10.0 mi NNW 3.5 mph - N/A   Clear
10:58 PM 44.2 °F 42.7 °F 25.5 °F 48% 30.03 in 10.0 mi North 3.5 mph - N/A   Clear
11:58 PM 42.6 °F 39.0 °F 25.3 °F 51% 30.03 in 10.0 mi North 5.8 mph - N/A   Clear